Regional Weather Roundup
Issued by NWS

Home | Current Version | Previous Version | Graphics & Text | Print | Product List | Glossary On
Versions: 1 2 3 4 5 6 7 8 9 10 11 12 13 14 15 16 17 18 19 20 21 22 23 24 25 26 27 28 29 30 31 32 33 34 35 36 37 38 39 40 41 42 43 44 45 46 47 48 49 50
000
ASUS43 KLSX 161007
RWRMO

WEATHER SUMMARY FOR MISSOURI
NATIONAL WEATHER SERVICE SPRINGFIELD MO
500 AM CDT TUE SEP 16 2014

NOTE: "FAIR" INDICATES FEW OR NO CLOUDS BELOW 12,000 FEET WITH NO
       SIGNIFICANT WEATHER AND/OR OBSTRUCTIONS TO VISIBILITY.
       CURRENT SKY AND/OR WEATHER CONDITIONS ARE NOT AVAILABLE FOR
       CHILLICOTHE AND FARMINGTON.

MOZ001>031-035>038-043-044-053-054-161100-
...NORTHERN AND WESTERN MISSOURI...

CITY           SKY/WX    TMP DP  RH WIND       PRES   REMARKS
KANSAS CTY INT CLEAR     47  46  97 NE5       30.25S
KANSAS C DTWN  CLEAR     51  48  89 NE3       30.24F
LEE`S SUMMIT   CLEAR     48  47  96 N7        30.25S
ST JOSEPH      FOG       41  41 100 CALM      30.26S VSB 3/4
CHILLICOTHE      N/A     47  45  93 N3        30.27S
KIRKSVILLE     CLEAR     46  45  96 N3        30.25S FOG

$$
MOZ066>068-077>081-088>096-101>105-161100-
...SOUTHWEST MISSOURI...

CITY           SKY/WX    TMP DP  RH WIND       PRES   REMARKS
SPRINGFIELD    CLOUDY    64  58  80 NE7       30.17F
JOPLIN         CLOUDY    60  59  96 N6        30.18F FOG

$$
MOZ032>034-039>042-045>050-055>058-069>072-161100-
...CENTRAL MISSOURI...

CITY           SKY/WX    TMP DP  RH WIND       PRES   REMARKS
COLUMBIA       CLOUDY    56  51  84 NE8       30.22S
JEFFERSON CITY CLOUDY    59  53  80 CALM      30.21F
ROLLA          CLOUDY    57  55  93 NE9       30.19R FOG
SEDALIA        CLOUDY    57  52  83 NE7       30.23S
WHITEMAN AFB   CLOUDY    55  51  88 N7        30.22F
OSAGE BEACH    CLOUDY    57  55  94 NE5       30.20S

$$
MOZ051-052-059>065-161100-
...EAST CENTRAL MISSOURI...

CITY           SKY/WX    TMP DP  RH WIND       PRES   REMARKS
ST LOUIS INTL  CLOUDY    59  55  87 NE8       30.21R
SPIRIT OF STL  CLOUDY    58  56  93 N7        30.20R
ST CHARLES     CLOUDY    57  55  93 N7        30.21R

$$
MOZ072>076-082>087-097>100-106>115-161100-
...SOUTH CENTRAL AND SOUTHEAST MISSOURI...

CITY           SKY/WX    TMP DP  RH WIND       PRES   REMARKS
CAPE GIRARDEAU CLOUDY    63  58  83 N10       30.15R
FARMINGTON     CLOUDY    59  55  88 NE8       30.21R
POPLAR BLUFF   CLOUDY    66  59  78 N8        30.13R
WEST PLAINS    CLOUDY    63  59  87 N8        30.18S

$$



USA.gov is the U.S. government's official web portal to all federal, state and local government web resources and services.